Hourly Weather Golaszew

Today, 13 May, Thursday

Time Temperature Precipitation Wind Pressure Humidity
00:00 +12°C° 0 mm 5 mps 746 mmHg 76%
01:00 +11°C° 0 mm 4 mps 746 mmHg 78%
02:00 +10°C° 0 mm 4 mps 746 mmHg 80%
03:00 +9°C° 0 mm 3 mps 745 mmHg 83%
04:00 +8°C° 0 mm 3 mps 745 mmHg 85%
05:00 +10°C° 0 mm 3 mps 745 mmHg 80%
06:00 +11°C° 0 mm 4 mps 744 mmHg 74%
07:00 +13°C° 0 mm 4 mps 744 mmHg 69%
08:00 +14°C° 0 mm 4 mps 744 mmHg 64%
09:00 +15°C° 0 mm 5 mps 743 mmHg 58%
10:00 +17°C° 0 mm 5 mps 743 mmHg 53%
11:00 +19°C° 0 mm 4 mps 743 mmHg 51%
12:00 +19°C° 0 mm 4 mps 742 mmHg 49%
13:00 +20°C° 0 mm 4 mps 742 mmHg 46%
14:00 +20°C° 0 mm 3 mps 741 mmHg 47%
15:00 +20°C° 0 mm 3 mps 741 mmHg 48%
16:00 +20°C° 0 mm 3 mps 741 mmHg 49%
17:00 +18°C° 0 mm 3 mps 741 mmHg 57%
18:00 +17°C° 0 mm 2 mps 741 mmHg 66%
19:00 +15°C° 0 mm 2 mps 741 mmHg 74%
20:00 +15°C° 0 mm 2 mps 741 mmHg 77%
21:00 +14°C° 0 mm 2 mps 741 mmHg 81%
22:00 +13°C° 0 mm 2 mps 741 mmHg 84%
23:00 +13°C° 0 mm 1 mps 741 mmHg 85%

Tomorrow, 14 May, Friday

Time Temperature Precipitation Wind Pressure Humidity
00:00 +12°C° 0 mm 1 mps 741 mmHg 87%
01:00 +11°C° 0 mm 0 mps 741 mmHg 88%
02:00 +12°C° 0 mm 1 mps 741 mmHg 88%
03:00 +12°C° 0 mm 1 mps 741 mmHg 88%
04:00 +12°C° 0 mm 1 mps 741 mmHg 88%
05:00 +12°C° 0 mm 2 mps 741 mmHg 85%
06:00 +13°C° 0 mm 2 mps 741 mmHg 83%
07:00 +14°C° 0 mm 2 mps 742 mmHg 80%
08:00 +14°C° 0 mm 3 mps 742 mmHg 77%
09:00 +16°C° 0 mm 3 mps 742 mmHg 75%
10:00 +17°C° 0 mm 4 mps 742 mmHg 73%
11:00 +17°C° 0.3 mm 4 mps 743 mmHg 74%
12:00 +16°C° 0.3 mm 5 mps 743 mmHg 75%
13:00 +16°C° 0.3 mm 6 mps 743 mmHg 75%
14:00 +15°C° 0.1 mm 5 mps 744 mmHg 75%
15:00 +15°C° 0.1 mm 5 mps 744 mmHg 75%
16:00 +15°C° 0.1 mm 5 mps 744 mmHg 75%
17:00 +14°C° 0 mm 5 mps 744 mmHg 78%
18:00 +13°C° 0 mm 5 mps 745 mmHg 82%
19:00 +12°C° 0 mm 5 mps 745 mmHg 86%
20:00 +12°C° 0 mm 4 mps 745 mmHg 86%
21:00 +11°C° 0 mm 4 mps 746 mmHg 87%
22:00 +11°C° 0 mm 4 mps 746 mmHg 87%
23:00 +11°C° 0 mm 4 mps 746 mmHg 88%

Day after tomorrow, 15 May, Saturday

Time Temperature Precipitation Wind Pressure Humidity
00:00 +11°C° 0 mm 3 mps 746 mmHg 89%
01:00 +10°C° 0 mm 3 mps 747 mmHg 90%
02:00 +10°C° 0 mm 3 mps 747 mmHg 90%
03:00 +10°C° 0 mm 3 mps 747 mmHg 91%
04:00 +10°C° 0 mm 3 mps 747 mmHg 91%
05:00 +10°C° 0 mm 3 mps 747 mmHg 89%
06:00 +11°C° 0 mm 3 mps 747 mmHg 87%
07:00 +11°C° 0 mm 3 mps 748 mmHg 85%
08:00 +12°C° 0 mm 3 mps 748 mmHg 81%
09:00 +13°C° 0 mm 3 mps 748 mmHg 76%
10:00 +14°C° 0 mm 3 mps 748 mmHg 71%
11:00 +16°C° 0 mm 3 mps 748 mmHg 65%
12:00 +17°C° 0 mm 3 mps 748 mmHg 59%
13:00 +18°C° 0 mm 3 mps 748 mmHg 53%
14:00 +18°C° 0 mm 2 mps 748 mmHg 52%
15:00 +19°C° 0 mm 2 mps 748 mmHg 50%
16:00 +20°C° 0 mm 1 mps 747 mmHg 48%
17:00 +19°C° 0 mm 1 mps 747 mmHg 54%
18:00 +16°C° 0 mm 1 mps 747 mmHg 60%
19:00 +15°C° 0 mm 1 mps 747 mmHg 66%
20:00 +14°C° 0 mm 1 mps 747 mmHg 68%
21:00 +13°C° 0 mm 2 mps 747 mmHg 71%
22:00 +11°C° 0 mm 3 mps 747 mmHg 74%
23:00 +11°C° 0 mm 3 mps 747 mmHg 75%

16 May, Sunday

Time Temperature Precipitation Wind Pressure Humidity
00:00 +11°C° 0 mm 3 mps 747 mmHg 77%
01:00 +11°C° 0 mm 3 mps 747 mmHg 78%
02:00 +11°C° 0.1 mm 3 mps 747 mmHg 80%
03:00 +12°C° 0.1 mm 2 mps 747 mmHg 82%
04:00 +12°C° 0.1 mm 2 mps 747 mmHg 84%
05:00 +12°C° 0.1 mm 3 mps 747 mmHg 82%
06:00 +12°C° 0.1 mm 3 mps 747 mmHg 79%
07:00 +13°C° 0.1 mm 4 mps 747 mmHg 76%
08:00 +15°C° 0 mm 4 mps 746 mmHg 72%
09:00 +17°C° 0 mm 5 mps 746 mmHg 68%
10:00 +19°C° 0 mm 5 mps 746 mmHg 64%
11:00 +20°C° 0.7 mm 5 mps 746 mmHg 64%
12:00 +20°C° 0.7 mm 5 mps 745 mmHg 64%
13:00 +20°C° 0.7 mm 4 mps 745 mmHg 64%
14:00 +20°C° 0.9 mm 4 mps 745 mmHg 67%
15:00 +19°C° 0.9 mm 3 mps 744 mmHg 69%
16:00 +19°C° 0.9 mm 3 mps 744 mmHg 72%
17:00 +17°C° 1.1 mm 3 mps 744 mmHg 79%
18:00 +16°C° 1.1 mm 3 mps 744 mmHg 85%
19:00 +13°C° 1.1 mm 3 mps 744 mmHg 92%
20:00 +13°C° 1.4 mm 3 mps 744 mmHg 93%
21:00 +12°C° 1.4 mm 3 mps 744 mmHg 94%
22:00 +12°C° 1.4 mm 3 mps 744 mmHg 95%
23:00 +13°C° 0 mm 2 mps 744 mmHg 95%

17 May, Monday

Time Temperature Precipitation Wind Pressure Humidity
00:00 +12°C° 0 mm 2 mps 744 mmHg 95%
01:00 +12°C° 0 mm 2 mps 745 mmHg 95%
02:00 +12°C° 0.2 mm 2 mps 745 mmHg 95%
03:00 +12°C° 0.2 mm 2 mps 745 mmHg 95%
04:00 +10°C° 0.2 mm 2 mps 745 mmHg 94%
05:00 +12°C° 0.1 mm 2 mps 745 mmHg 93%
06:00 +12°C° 0.1 mm 2 mps 745 mmHg 92%
07:00 +12°C° 0.1 mm 2 mps 745 mmHg 90%
08:00 +14°C° 0.1 mm 2 mps 745 mmHg 85%
09:00 +15°C° 0.1 mm 2 mps 745 mmHg 79%
10:00 +16°C° 0.1 mm 2 mps 745 mmHg 74%
11:00 +17°C° 0.2 mm 2 mps 745 mmHg 67%
12:00 +18°C° 0.2 mm 2 mps 745 mmHg 61%
13:00 +19°C° 0.2 mm 2 mps 745 mmHg 55%
14:00 +19°C° 0 mm 2 mps 744 mmHg 57%
15:00 +19°C° 0 mm 2 mps 744 mmHg 60%
16:00 +18°C° 0 mm 2 mps 744 mmHg 63%
17:00 +17°C° 0 mm 2 mps 744 mmHg 66%
18:00 +16°C° 0 mm 2 mps 744 mmHg 70%
19:00 +15°C° 0 mm 1 mps 744 mmHg 74%
20:00 +14°C° 0 mm 1 mps 744 mmHg 76%
21:00 +13°C° 0 mm 1 mps 744 mmHg 79%
22:00 +13°C° 0 mm 1 mps 745 mmHg 81%
23:00 +12°C° 0 mm 1 mps 745 mmHg 83%

18 May, Tuesday

Time Temperature Precipitation Wind Pressure Humidity
00:00 +12°C° 0 mm 1 mps 745 mmHg 85%
01:00 +10°C° 0 mm 0 mps 745 mmHg 87%
02:00 +11°C° 0 mm 1 mps 745 mmHg 87%
03:00 +11°C° 0 mm 1 mps 745 mmHg 87%
04:00 +11°C° 0 mm 1 mps 744 mmHg 87%
05:00 +12°C° 0 mm 1 mps 745 mmHg 85%
06:00 +13°C° 0 mm 2 mps 745 mmHg 84%
07:00 +14°C° 0 mm 2 mps 745 mmHg 83%
08:00 +14°C° 0.6 mm 2 mps 745 mmHg 83%
09:00 +14°C° 0.6 mm 2 mps 745 mmHg 84%
10:00 +15°C° 0.6 mm 2 mps 744 mmHg 84%
11:00 +14°C° 0.7 mm 3 mps 744 mmHg 85%
12:00 +14°C° 0.7 mm 3 mps 744 mmHg 85%
13:00 +14°C° 0.7 mm 3 mps 744 mmHg 86%
14:00 +13°C° 2.9 mm 4 mps 743 mmHg 89%
15:00 +13°C° 2.9 mm 4 mps 743 mmHg 92%
16:00 +12°C° 2.9 mm 4 mps 743 mmHg 95%
17:00 +12°C° 3.9 mm 5 mps 743 mmHg 95%
18:00 +11°C° 3.9 mm 6 mps 742 mmHg 96%
19:00 +10°C° 3.9 mm 7 mps 742 mmHg 96%
20:00 +10°C° 3.8 mm 8 mps 742 mmHg 96%
21:00 +10°C° 3.8 mm 8 mps 742 mmHg 96%
22:00 +10°C° 3.8 mm 9 mps 742 mmHg 96%
23:00 +10°C° 1.9 mm 9 mps 742 mmHg 96%
Show more